TimeEST,TemperatureF,Dew PointF,Humidity,Sea Level PressureIn,VisibilityMPH,Wind Direction,Wind SpeedMPH,Gust SpeedMPH,PrecipitationIn,Events,Conditions,WindDirDegrees,DateUTC
12:53 AM,35.1,19.0,52,29.85,10.0,SW,13.8,23.0,N/A,,Overcast,230,2014-01-17 05:53:00
1:34 AM,32.0,24.8,75,29.84,3.0,SSW,6.9,17.3,0.00,Snow,Light Snow,200,2014-01-17 06:34:00
1:53 AM,30.9,26.1,82,29.88,3.0,SSW,5.8,-,0.00,Snow,Light Snow,210,2014-01-17 06:53:00
2:10 AM,30.2,28.4,93,29.84,2.5,SSW,5.8,-,0.00,Snow,Light Snow,200,2014-01-17 07:10:00
2:15 AM,30.2,28.4,93,29.84,3.0,Variable,6.9,-,0.00,Snow,Light Snow,0,2014-01-17 07:15:00
2:53 AM,30.9,28.0,89,29.88,8.0,South,4.6,-,0.00,,Overcast,190,2014-01-17 07:53:00
3:35 AM,32.0,28.4,87,29.84,10.0,Variable,6.9,-,N/A,,Overcast,0,2014-01-17 08:35:00
4:18 AM,32.0,28.4,87,29.83,10.0,Calm,Calm,-,N/A,,Overcast,0,2014-01-17 09:18:00
4:53 AM,32.0,27.0,82,29.87,10.0,SW,5.8,-,N/A,,Overcast,220,2014-01-17 09:53:00
5:36 AM,32.0,26.6,80,29.83,10.0,South,3.5,-,N/A,,Overcast,180,2014-01-17 10:36:00
5:53 AM,32.0,27.0,82,29.87,10.0,Calm,Calm,-,N/A,,Overcast,0,2014-01-17 10:53:00
6:53 AM,32.0,26.1,79,29.87,10.0,Calm,Calm,-,N/A,,Overcast,0,2014-01-17 11:53:00
8:50 AM,33.8,28.4,81,29.86,2.0,SW,5.8,-,0.00,Snow,Light Snow,230,2014-01-17 13:50:00
8:53 AM,33.1,28.0,82,29.90,1.2,SW,4.6,-,0.00,Snow,Light Snow,220,2014-01-17 13:53:00
9:28 AM,32.0,30.2,93,29.87,1.0,Variable,3.5,-,0.00,Snow,Light Snow,0,2014-01-17 14:28:00
10:18 AM,32.0,30.2,93,29.88,1.5,Variable,3.5,-,0.00,Snow,Light Snow,0,2014-01-17 15:18:00
10:40 AM,33.8,30.2,87,29.87,2.0,South,3.5,-,0.00,Snow,Light Snow,180,2014-01-17 15:40:00
10:50 AM,33.8,30.2,87,29.87,3.0,SSW,4.6,-,0.00,Snow,Light Snow,200,2014-01-17 15:50:00
10:53 AM,33.1,30.9,92,29.90,3.0,South,5.8,-,0.00,Snow,Light Snow,190,2014-01-17 15:53:00
11:53 AM,37.0,30.9,79,29.87,10.0,South,4.6,-,0.00,,Mostly Cloudy,190,2014-01-17 16:53:00
12:01 PM,37.4,30.2,75,29.84,10.0,SW,6.9,-,N/A,,Overcast,220,2014-01-17 17:01:00
12:53 PM,37.0,28.9,73,29.83,10.0,South,6.9,-,N/A,,Mostly Cloudy,190,2014-01-17 17:53:00
1:34 PM,39.2,28.4,65,29.78,10.0,South,6.9,-,N/A,,Scattered Clouds,170,2014-01-17 18:34:00
1:53 PM,41.0,30.0,65,29.80,10.0,SSE,6.9,-,N/A,,Partly Cloudy,150,2014-01-17 18:53:00
2:04 PM,41.0,28.4,61,29.77,10.0,SE,5.8,-,N/A,,Clear,140,2014-01-17 19:04:00
2:53 PM,42.1,26.1,53,29.78,10.0,Variable,3.5,-,N/A,,Mostly Cloudy,0,2014-01-17 19:53:00
3:53 PM,39.0,28.0,65,29.80,10.0,SSE,9.2,-,N/A,,Mostly Cloudy,160,2014-01-17 20:53:00
4:53 PM,36.0,30.0,79,29.82,4.0,SSW,4.6,-,0.00,Rain-Snow,Light Rain,200,2014-01-17 21:53:00
5:06 PM,35.6,30.2,81,29.80,10.0,South,3.5,-,0.00,Rain-Snow,Light Rain,190,2014-01-17 22:06:00
5:16 PM,35.6,30.2,81,29.80,10.0,Calm,Calm,-,0.00,Snow,Light Snow,0,2014-01-17 22:16:00
5:30 PM,35.6,30.2,81,29.80,9.0,SSW,4.6,-,0.00,Snow,Light Snow,200,2014-01-17 22:30:00
5:53 PM,36.0,30.9,82,29.85,9.0,Calm,Calm,-,0.00,,Overcast,0,2014-01-17 22:53:00
6:16 PM,35.6,30.2,81,29.82,10.0,Variable,3.5,-,0.00,Rain-Snow,Light Rain,0,2014-01-17 23:16:00
6:36 PM,33.8,32.0,93,29.82,3.0,Variable,3.5,-,0.01,Rain-Snow,Light Rain,0,2014-01-17 23:36:00
6:41 PM,33.8,32.0,93,29.83,2.5,WNW,4.6,-,0.02,Snow,Light Snow,290,2014-01-17 23:41:00
6:50 PM,33.8,32.0,93,29.84,1.8,SW,4.6,-,0.02,Snow,Light Snow,230,2014-01-17 23:50:00
6:53 PM,33.1,32.0,96,29.87,2.0,Calm,Calm,-,0.02,Snow,Light Snow,0,2014-01-17 23:53:00
7:01 PM,33.8,30.2,87,29.85,1.2,WSW,6.9,-,0.01,Snow,Light Snow,250,2014-01-18 00:01:00
7:11 PM,32.0,30.2,93,29.86,0.5,WSW,8.1,19.6,0.03,Fog-Snow,Light Snow,250,2014-01-18 00:11:00
7:36 PM,30.2,28.4,93,29.87,1.0,West,5.8,-,0.05,Snow,Light Snow,280,2014-01-18 00:36:00
7:50 PM,30.2,28.4,93,29.89,2.0,Variable,6.9,-,0.05,Snow,Light Snow,0,2014-01-18 00:50:00
7:53 PM,30.0,28.9,96,29.92,3.0,Variable,5.8,-,0.05,Snow,Light Snow,0,2014-01-18 00:53:00
8:04 PM,30.2,28.4,93,29.88,7.0,West,11.5,-,0.00,Snow,Light Snow,280,2014-01-18 01:04:00
8:36 PM,30.2,26.6,86,29.89,9.0,Variable,5.8,-,0.00,Snow,Light Snow,0,2014-01-18 01:36:00
8:53 PM,30.0,25.0,82,29.93,8.0,West,8.1,-,0.00,Snow,Light Snow,280,2014-01-18 01:53:00
9:07 PM,30.2,24.8,80,29.91,8.0,West,4.6,-,0.00,Snow,Light Snow,260,2014-01-18 02:07:00
9:18 PM,28.4,24.8,86,29.92,1.8,West,13.8,19.6,0.01,Snow,Light Snow,270,2014-01-18 02:18:00
9:28 PM,28.4,23.0,80,29.92,3.0,WSW,6.9,18.4,0.01,Snow,Light Snow,240,2014-01-18 02:28:00
9:53 PM,28.0,23.0,81,29.96,9.0,WSW,8.1,-,0.01,Snow,Light Snow,240,2014-01-18 02:53:00
10:26 PM,26.6,19.4,74,29.94,2.5,Variable,5.8,-,0.00,Snow,Light Snow,0,2014-01-18 03:26:00
10:35 PM,26.6,21.2,80,29.94,1.2,WSW,5.8,-,0.00,Snow,Light Snow,250,2014-01-18 03:35:00
10:53 PM,26.1,21.0,81,29.98,9.0,Variable,6.9,-,0.00,Snow,Light Snow,0,2014-01-18 03:53:00
11:53 PM,24.1,17.1,75,29.97,10.0,WSW,8.1,-,0.00,,Overcast,240,2014-01-18 04:53:00